Powrót do katalogu

STARLINK-4490

AktywnyŁącznośćVLEO
NORAD 53409·PAYLOAD·🇺🇸 United States

Wystrzelony Aug 10, 2022 z Cape Canaveral Space Force Station

Loading…

Następne Przeloty (najbliższe 24 godziny)

TLE

ŚwieżeSource: CelesTrak SupGP

Epoka: Sep 14, 2026, 20:58 UTC

1 53409C 22097X   26257.87409722 -.00030669  00000+0 -90631-3 0  2576
2 53409  53.1581 320.3622 0001322  83.9536 206.5634 15.34398916    12

Śledź STARLINK-4490 w czasie rzeczywistym z AllMySat

Download on the App Store